User: anonymous   Login
Location: Julian California
(33.0790°N, 116.6010°W)
Time: 08:17:12
(UTC-07:00)
Language:

NOSS 2-2 (D) - Orbit

View from above orbital plane
View from above orbital plane
View from above satellite
View from above satellite

Ground track
Ground track

The orbit data is extracted from the following two-line orbital elements,

1 21808U 91076D   18260.14450945 0.00000000  00000-0  00000-0 0    04
2 21808  63.3442 359.1357 0788000  30.5052 329.4948 13.41203397    06
Epoch (UTC): 17 September 2018 03:28:05
Eccentricity: 0.0788000
inclination: 63.3442°
perigee height: 515 km
apogee height: 1694 km
right ascension of ascending node: 359.1357°
argument of perigee: 30.5052°
revolutions per day: 13.41203397
mean anomaly at epoch: 329.4948°
orbit number at epoch: 0

The dashed part of the orbit path shows where the satellite is in the earth's shadow,  

DLR